[[{"header":{"parameterUnit":"m.s-1","parameterCategory":1,"la1":30.2991,"la2":30.254,"lo1":-89.0895,"lo2":-89.0444,"dy":0.0017,"dx":0.0017,"nx":28,"ny":28,"refTime":"2025-07-11T03:00:00:Z","depth":0,"parameterNumber":2,"parameterNumberName":"U-component_of_WINDS"},"data":[0,0,0,0,0,0,0,0,0,0,0,0,0,0,0,0,0,0,0,0,0,0,0,0,0,0,0,0,0,0,0,0,0,0,0,0,0,0,0,0,0,0,0,0,0,0,0,0,0,0,0,0,0,0,0,0,0,0,0.6804,0.6806,0,0.6982,0.6984,0.6986,0.7048,0.7048,0.7047,0.7046,0.7232,0.7237,0.7243,0,0,0,0,0,0,0,0,0,0,0,0,0,0.6521,0.6526,0.6804,0.6806,0.6808,0.6981,0.6984,0.6986,0.7048,0.7048,0.7047,0.7046,0.723,0.7237,0.7243,0,0,0,0,0,0,0,0,0,0,0,0,0,0.6666,0.6527,0.6803,0.686,0.6867,0.6981,0.6984,0.6987,0.7049,0.7048,0.7047,0.7046,0.7228,0.7236,0.7244,0.7316,0,0,0.727,0.7273,0,0,0,0,0,0,0,0,0.6657,0.6676,0.685,0.6856,0.6864,0.6992,0.6952,0.7097,0.7049,0.698,0.7046,0.7045,0.7153,0.7167,0.7203,0.7325,0.7333,0.727,0.7276,0.7279,0.7281,0,0,0,0,0,0,0,0.6647,0.6669,0.6874,0.6852,0.6861,0.6878,0.6897,0.698,0.707,0.6986,0.6991,0.7011,0.7157,0.7195,0.7208,0.7335,0.727,0.7278,0.7283,0.7286,0.7524,0.7526,0,0,0,0,0,0,0.6627,0.666,0.6869,0.688,0.6756,0.6883,0.6905,0.6952,0.7069,0.7086,0.7011,0.7013,0.7181,0.7198,0.7215,0.7306,0.7279,0.7287,0.7292,0.7523,0.7525,0.7526,0,0,0,0,0,0,0.6621,0.6645,0.6862,0.6771,0.68,0.6889,0.6941,0.6956,0.6994,0.7089,0.7105,0.7033,0.7181,0.7203,0.729,0.7314,0.7291,0.7298,0.7522,0.7524,0.7525,0.749,0,0,0,0,0,0,0.6613,0.6643,0.667,0.6771,0.6805,0.6933,0.6943,0.696,0.7008,0.7012,0.7114,0.713,0.7182,0.7277,0.7298,0.7325,0.7305,0.752,0.7522,0.7525,0.7489,0.749,0.7491,0,0,0,0,0,0.6602,0.6654,0.6671,0.6696,0.6841,0.6934,0.6953,0.7011,0.7009,0.7038,0.7099,0.7127,0.7307,0.7286,0.731,0.7339,0.7519,0.7522,0.7525,0.7489,0.749,0.7491,0,0,0,0,0,0,0.6555,0.6668,0.6689,0.6775,0.6844,0.6944,0.6983,0.7011,0.7083,0.7084,0.7154,0.7176,0.7258,0.7307,0.7281,0.7415,0.7415,0.7423,0.7379,0.7381,0.7382,0.7369,0.7312,0,0,0,0,0,0.6554,0.6619,0.6716,0.6782,0.6816,0.6893,0.6936,0.6974,0.705,0.708,0.7147,0.722,0.7293,0.734,0.7413,0.7497,0.752,0.7529,0.753,0.753,0.7536,0.7584,0.7589,0.7536,0.7536,0.7536,0,0,0.6554,0.6624,0.6661,0.6774,0.6833,0.6899,0.6917,0.6988,0.7038,0.7091,0.7177,0.7228,0.7314,0.74,0.7441,0.7444,0.7556,0.7534,0.7533,0.754,0.7587,0.7592,0.7597,0.7538,0.7538,0.7537,0,0,0.6587,0.6647,0.6708,0.6766,0.6854,0.6905,0.6919,0.7015,0.7051,0.7138,0.7179,0.724,0.7365,0.7425,0.7471,0.7526,0.7554,0.7548,0.7553,0.7599,0.7603,0.7607,0.7626,0.7632,0.7553,0.7553,0.7553,0,0.6576,0.6678,0.6737,0.6805,0.6853,0.6902,0.6966,0.7019,0.7126,0.7159,0.716,0.7317,0.7379,0.7479,0.7492,0.7528,0.7547,0.7537,0.7597,0.7602,0.7607,0.7626,0.7633,0.7552,0.7552,0.7552,0.7552,0,0.6659,0.6729,0.6769,0.6869,0.6922,0.6987,0.7057,0.7104,0.7137,0.7188,0.7276,0.7351,0.744,0.7466,0.7501,0.7571,0.757,0.7583,0.7585,0.7609,0.7628,0.7636,0.755,0.7551,0.7551,0.7551,0,0,0.6669,0.68,0.6814,0.686,0.696,0.7015,0.7083,0.7168,0.7206,0.7279,0.7337,0.7441,0.7454,0.7506,0.7548,0.7588,0.7626,0.7596,0.7599,0.7599,0.7708,0.7697,0.7705,0.7645,0.7646,0.7648,0.7701,0,0.6715,0.6837,0.6891,0.6989,0.7054,0.7101,0.716,0.7228,0.7277,0.734,0.7395,0.7467,0.7478,0.751,0.7552,0.7612,0.7649,0.7609,0.7701,0.7703,0.7677,0.7715,0.7705,0.7751,0.7709,0.771,0.7711,0,0.6786,0.6856,0.6959,0.7051,0.708,0.7132,0.7214,0.7273,0.7352,0.7385,0.7442,0.7482,0.7555,0.7551,0.7653,0.7625,0.7665,0.7701,0.7704,0.7715,0.7708,0.7727,0.7768,0.7774,0.7724,0.7723,0.7722,0,0.6782,0.6903,0.698,0.7018,0.7127,0.7162,0.7209,0.7286,0.7333,0.7405,0.7437,0.7517,0.7561,0.7622,0.7682,0.7674,0.7779,0.778,0.7809,0.7807,0.7829,0.7827,0.7876,0.7855,0.7854,0.7854,0.7854,0,0.6828,0.6889,0.698,0.7027,0.7097,0.716,0.7228,0.7278,0.7346,0.7405,0.7451,0.7505,0.7581,0.7645,0.7693,0.777,0.779,0.7819,0.7831,0.7815,0.7811,0.7842,0.7841,0.7856,0.7856,0.7855,0.7855,0,0.6836,0.6899,0.6986,0.7081,0.7106,0.7153,0.7235,0.7284,0.7334,0.7408,0.7429,0.7509,0.7587,0.7653,0.7755,0.7787,0.7867,0.7881,0.784,0.7847,0.7872,0.7868,0.7943,0.7956,0.7925,0.7926,0.7926,0,0.6861,0.6909,0.7009,0.705,0.7096,0.7164,0.7212,0.7276,0.7324,0.7416,0.7453,0.7534,0.7602,0.7724,0.7792,0.787,0.7887,0.7908,0.7899,0.7881,0.7887,0.7883,0.7889,0.7908,0.7908,0.7908,0.7908,0,0.6899,0.6928,0.6995,0.7073,0.7129,0.7193,0.726,0.7292,0.7368,0.742,0.7499,0.7551,0.7655,0.7735,0.7821,0.787,0.7902,0.791,0.7921,0.7905,0.7879,0.7893,0.7842,0.7908,0.7908,0.7908,0.7908,0.7908,0.6917,0.6961,0.7038,0.7111,0.7167,0.7228,0.7277,0.7334,0.7401,0.7489,0.7523,0.7604,0.7681,0.7799,0.7848,0.7913,0.7918,0.7933,0.7937,0.794,0.7938,0.7868,0.7929,0.7929,0.7929,0.7929,0.7929,0,0.6957,0.7008,0.7075,0.7165,0.7223,0.7246,0.7321,0.7367,0.7438,0.7506,0.7571,0.7662,0.7739,0.7813,0.7894,0.7931,0.7948,0.7951,0.7949,0.7959,0.7929,0.7911,0.7936,0.7936,0.7936,0.7936,0.7936,0.7936,0.6985,0.7061,0.7099,0.7203,0.7255,0.7333,0.7374,0.743,0.7485,0.7583,0.7647,0.7694,0.7765,0.7851,0.7923,0.7943,0.7971,0.7969,0.7993,0.7963,0.7962,0.796,0.7944,0.7975,0.7975,0.8018,0.8018,0.8019]},{"header":{"parameterUnit":"m.s-1","parameterCategory":1,"la1":30.2991,"la2":30.254,"lo1":-89.0895,"lo2":-89.0444,"dy":0.0017,"dx":0.0017,"nx":28,"ny":28,"refTime":"2025-07-11T03:00:00:Z","depth":0,"parameterNumber":3,"parameterNumberName":"V-component_of_WINDS"},"data":[0,0,0,0,0,0,0,0,0,0,0,0,0,0,0,0,0,0,0,0,0,0,0,0,0,0,0,0,0,0,0,0,0,0,0,0,0,0,0,0,0,0,0,0,0,0,0,0,0,0,0,0,0,0,0,0,0,0,2.2547,2.2546,0,2.244,2.2439,2.2438,2.2434,2.2436,2.2437,2.2438,2.232,2.2315,2.2311,0,0,0,0,0,0,0,0,0,0,0,0,0,2.2738,2.2735,2.2547,2.2546,2.2545,2.2441,2.2439,2.2438,2.2434,2.2436,2.2437,2.2439,2.2321,2.2316,2.2311,0,0,0,0,0,0,0,0,0,0,0,0,0,2.2645,2.2734,2.2547,2.253,2.2528,2.2441,2.2439,2.2437,2.2434,2.2436,2.2438,2.244,2.2323,2.2317,2.231,2.223,0,0,2.229,2.2287,0,0,0,0,0,0,0,0,2.2651,2.2638,2.2534,2.2532,2.2528,2.2453,2.2463,2.2367,2.2433,2.2469,2.2438,2.2441,2.2362,2.2352,2.2328,2.2224,2.2219,2.2289,2.2285,2.2283,2.2281,0,0,0,0,0,0,0,2.2657,2.2643,2.2505,2.2533,2.2529,2.2525,2.2514,2.2445,2.2405,2.2466,2.2466,2.2454,2.2361,2.2334,2.2325,2.2218,2.229,2.2284,2.228,2.2277,2.2039,2.2037,0,0,0,0,0,0,2.2668,2.2648,2.2508,2.2501,2.2596,2.252,2.2508,2.2475,2.2406,2.2398,2.2452,2.2454,2.2344,2.2332,2.2321,2.2219,2.2283,2.2276,2.2273,2.2042,2.2039,2.2036,0,0,0,0,0,0,2.2672,2.2656,2.2512,2.2575,2.2556,2.2515,2.2478,2.2472,2.2445,2.2396,2.2388,2.2433,2.2345,2.233,2.2252,2.2215,2.2273,2.2268,2.2044,2.2041,2.2037,2.2018,0,0,0,0,0,0,2.2678,2.2657,2.2629,2.2574,2.2553,2.2449,2.2476,2.2468,2.2435,2.2436,2.2375,2.2367,2.2346,2.2262,2.2246,2.2207,2.2262,2.2047,2.2043,2.2039,2.2022,2.2015,2.2008,0,0,0,0,0,2.2685,2.2627,2.2628,2.2611,2.2517,2.2447,2.2434,2.2413,2.2432,2.2401,2.2369,2.2369,2.2223,2.2254,2.2236,2.2195,2.205,2.2044,2.2039,2.2025,2.2016,2.2009,0,0,0,0,0,0,2.2675,2.2619,2.262,2.2543,2.25,2.2447,2.2407,2.2405,2.2354,2.2357,2.233,2.2316,2.2238,2.2209,2.2245,2.2112,2.2138,2.2129,2.2134,2.2125,2.2118,2.2125,2.2257,0,0,0,0,0,2.2665,2.2615,2.2568,2.2504,2.2483,2.2449,2.2418,2.2405,2.2359,2.234,2.2302,2.2254,2.2197,2.2159,2.2104,2.2019,2.2003,2.1981,2.1974,2.1969,2.196,2.1909,2.1897,2.2019,2.2019,2.2019,0,0,2.2641,2.2604,2.2574,2.2501,2.2467,2.2413,2.2433,2.2376,2.2335,2.233,2.2254,2.2225,2.2169,2.2087,2.2048,2.206,2.1923,2.1962,2.1958,2.1952,2.1902,2.1891,2.188,2.2015,2.2016,2.2016,0,0,2.257,2.2539,2.2482,2.2447,2.2395,2.2373,2.2359,2.2306,2.2286,2.2211,2.2206,2.2154,2.2058,2.2018,2.1984,2.1897,2.1894,2.188,2.1843,2.1793,2.1783,2.1775,2.174,2.1729,2.1872,2.1872,2.1872,0,2.2546,2.2468,2.2452,2.2394,2.236,2.2357,2.2295,2.2262,2.2193,2.2168,2.2183,2.206,2.2023,2.1929,2.1908,2.1882,2.1862,2.1886,2.1787,2.1778,2.1769,2.1736,2.1724,2.187,2.1871,2.1871,2.1871,0,2.244,2.2386,2.2345,2.2281,2.2243,2.2184,2.2155,2.2118,2.2109,2.2084,2.2005,2.196,2.1894,2.1872,2.1862,2.1775,2.1784,2.1793,2.1818,2.1757,2.1725,2.1712,2.1868,2.1869,2.1869,2.187,0,0,2.2359,2.2288,2.2272,2.2242,2.2185,2.214,2.208,2.2019,2.1985,2.1938,2.1884,2.1802,2.181,2.1772,2.1757,2.1714,2.1644,2.1728,2.1726,2.1711,2.1541,2.1533,2.1518,2.1642,2.164,2.1638,2.1545,0,2.228,2.2175,2.2157,2.2064,2.2011,2.2006,2.1953,2.1909,2.1884,2.1833,2.1804,2.1745,2.1762,2.1738,2.1696,2.1661,2.1609,2.1668,2.1587,2.1584,2.1598,2.1502,2.1493,2.1408,2.1533,2.1531,2.1529,0,2.2173,2.2125,2.2027,2.1975,2.1952,2.1905,2.1845,2.1798,2.1747,2.1732,2.169,2.1679,2.1612,2.1642,2.1547,2.1588,2.1554,2.1532,2.1528,2.1517,2.1551,2.1485,2.138,2.1366,2.151,2.1511,2.1513,0,2.2119,2.2031,2.196,2.1935,2.1873,2.1839,2.1811,2.1763,2.1726,2.1674,2.1649,2.1588,2.1554,2.1506,2.1478,2.1503,2.1383,2.1412,2.1364,2.1365,2.1337,2.1339,2.1222,2.132,2.1321,2.1321,2.1321,0,2.2031,2.197,2.1935,2.1891,2.1822,2.1801,2.1731,2.1703,2.166,2.1608,2.16,2.155,2.1518,2.1463,2.144,2.1363,2.1348,2.133,2.1324,2.1329,2.1331,2.1304,2.1308,2.1317,2.1318,2.1319,2.132,0,2.1959,2.1933,2.1855,2.1803,2.1789,2.1739,2.1693,2.1648,2.1623,2.1557,2.154,2.1499,2.1433,2.1402,2.132,2.1304,2.1215,2.1215,2.1233,2.123,2.1183,2.1186,2.1042,2.102,2.1136,2.1135,2.1135,0,2.1903,2.1856,2.1799,2.1765,2.1737,2.1682,2.1645,2.1622,2.1583,2.1521,2.1482,2.1417,2.1364,2.1258,2.1218,2.1155,2.1151,2.1104,2.1141,2.1146,2.1145,2.1147,2.1141,2.1097,2.1096,2.1095,2.1094,0,2.1804,2.1794,2.1743,2.1686,2.1643,2.1597,2.1551,2.1523,2.1491,2.1447,2.1382,2.134,2.1257,2.119,2.1124,2.1091,2.1085,2.1083,2.1068,2.1071,2.1082,2.1072,2.1211,2.1086,2.1087,2.1087,2.1088,2.1088,2.1736,2.1693,2.1646,2.1589,2.1553,2.151,2.1465,2.1434,2.138,2.1312,2.1301,2.123,2.1177,2.1088,2.1053,2.0994,2.1004,2.0983,2.0977,2.0972,2.0967,2.1095,2.0982,2.0982,2.0982,2.0983,2.0983,0,2.1634,2.1604,2.1552,2.1489,2.1442,2.1446,2.1395,2.1354,2.1293,2.1246,2.1194,2.1116,2.1051,2.1007,2.0941,2.0902,2.0897,2.0885,2.0886,2.0877,2.0964,2.0982,2.0889,2.0889,2.0889,2.0889,2.0889,2.0889,2.1576,2.1503,2.1487,2.1394,2.1364,2.1296,2.1266,2.1225,2.1188,2.1102,2.1049,2.1023,2.0975,2.0905,2.0844,2.0832,2.0806,2.0793,2.0781,2.0862,2.0872,2.0881,2.0898,2.0789,2.0788,2.0699,2.0698,2.0697]}]]